Regional Weather Roundup
Issued by NWS Albany, NY

Home | Current Version | Previous Version | Graphics & Text | Print | Product List | Glossary Off
Versions: 1 2 3 4 5 6 7 8 9 10 11 12 13 14 15 16 17 18 19 20 21 22 23 24 25 26 27 28 29 30 31 32 33 34 35 36 37 38 39 40 41 42 43 44 45 46 47 48 49 50

000
ASUS41 KALY 270610
RWRALY

NEW YORK STATE HOURLY WEATHER ROUNDUP
NATIONAL WEATHER SERVICE ALBANY NY
100 AM EST FRI FEB 27 2015

NOTE: "FAIR" INDICATES FEW OR NO CLOUDS BELOW 12,000 FEET WITH NO
SIGNIFICANT WEATHER AND/OR NO OBSTRUCTIONS TO VISIBILITY.

NYZ032-033-038>043-046>054-057>066-NYZ062>081-270700-
EAST


CITY           SKY/WX    TMP DP  RH WIND       PRES   REMARKS
ALBANY         CLOUDY    11  -6  46 N8        30.20S WCI  -1
GLENS FALLS    CLOUDY     8  -5  55 N3        30.20R
POUGHKEEPSIE   MOCLDY    13   4  67 CALM      30.18R
NEWBURGH       MOCLDY    14   5  67 CALM      30.15S
MONTGOMERY     CLOUDY     8   3  80 CALM      30.15R
WHITE PLAINS   PTCLDY    16   1  51 NW7       30.12S WCI   6
ISLIP          PTCLDY    20  12  71 N8        30.14R WCI  10
NEW YORK CITY  CLOUDY    22   8  55 N9        30.17R WCI  12
CENTRAL PARK   CLOUDY    21   6  52 VRB6      30.18R WCI  13
$$

NYZ005>009-017-018-044>046-055-056-270700-
CENTRAL


CITY           SKY/WX    TMP DP  RH WIND       PRES   REMARKS
FULTON         CLOUDY     7   1  76 S5        30.24R WCI  -2
SYRACUSE       CLOUDY    10   2  71 CALM      30.24R
ROME           PTCLDY     3  -2  79 NW3       30.25R
ELMIRA         MOCLDY     6   1  80 CALM      30.20R
BINGHAMTON     CLOUDY     5   1  83 NW7       30.09R WCI  -7
MONTICELLO     MOCLDY    10   7  85 CALM      30.07R
$$

NYZ026>034-041>043-270700-
NORTH


CITY           SKY/WX    TMP DP  RH WIND       PRES   REMARKS
WATERTOWN      PTCLDY    -2  -9  72 E5        30.25R WCI -12
FORT DRUM      NOT AVBL
MASSENA        PTCLDY   -10 -17  71 SW5       30.26R WCI -22
SARANAC LAKE   CLOUDY   -10 -15  78 CALM      30.06R
PLATTSBURGH    CLOUDY    -3  -9  75 CALM      30.23R
$$

NYZ001>004-010>016-019>021-270700-
WEST


CITY           SKY/WX    TMP DP  RH WIND       PRES   REMARKS
BUFFALO        LGT SNOW  10   4  76 NW8       30.25R WCI  -2
DUNKIRK        LGT SNOW   8   4  83 W5        30.28R FOG     WCI   0
JAMESTOWN      CLOUDY     5   1  85 N6        30.14S WCI  -6
WELLSVILLE     CLOUDY     4  -1  80 NW8       30.10R WCI  -9
ROCHESTER      LGT SNOW  10   5  80 W7        30.25R WCI  -1
PENN YAN       CLOUDY     8   3  80 CALM      30.20R
$$

             KEY
       WCI = WIND CHILL INDEX
       VSB = VISIBILITY
       HX  = HEAT INDEX
$$



USA.gov is the U.S. government's official web portal to all federal, state and local government web resources and services.